Zurück zum Katalog

THORAD DELTA 1 DEB

AktivLEO
NORAD 13528·DEBRIS·🇺🇸 United States

Gestartet Nov 15, 1974 von Vandenberg Space Force Base

Loading…

Nächste Überflüge (nächste 24 Stunden)

TLE

AktuellSource: Space-Track

Epoche: Sep 14, 2026, 00:29 UTC

1 13528U 74089EP  26257.02029903  .00000426  00000-0  21162-2 0  9990
2 13528 103.1397 286.4719 0074178 262.7459 126.3216 12.79555734141122

Verfolge THORAD DELTA 1 DEB in Echtzeit mit AllMySat

Download on the App Store